Weather History for New Delhi, India

Change the Weather History Date:

Tuesday, January 14, 2014

  Actual Average Record
Temperature  
Mean Temperature 56 °F -  
Max Temperature 69 °F 69 °F - (-1)
Min Temperature 44 °F 47 °F - (-1)
Degree Days  
Heating Degree Days 8    
Growing Degree Days 6 (Base 50)    
Moisture  
Dew Point 47 °F    
Average Humidity 76    
Maximum Humidity 100    
Minimum Humidity 28    
Precipitation  
Precipitation 0.00 in - - ()
Sea Level Pressure  
Sea Level Pressure 30.03 in    
Wind  
Wind Speed 3 mph ()    
Max Wind Speed 8 mph    
Max Gust Speed -    
Visibility 0.6 miles    
Events Fog    
Averages and records for this station are not official NWS values.
T = Trace of Precipitation, MM = Missing Value Source: Averaged Metar Reports

Daily Weather History Graph

Daily Weather History Graph

Search for Another Location

Airport:

Trip Planner

Search our weather history database for the weather conditions in past years. The results will help you decide how hot, cold, wet, or windy it might be!

Date:

Astronomy

Jan. 14, 2014 Rise Set
Actual Time 7:15 AM IST 5:45 PM IST
Civil Twilight 6:49 AM IST 6:11 PM IST
Nautical Twilight 6:20 AM IST 6:40 PM IST
Astronomical Twilight 5:52 AM IST 7:08 PM IST
Moon 4:25 PM IST (1/14) 5:30 AM IST (1/14)
Length of Visible Light 11h 21m
Length of Day
10h 30m
Waxing Gibbous, 97% of the Moon is Illuminated
Jan 14
Waxing Gibbous
Jan 16
Full
Jan 24
Last Quarter
Jan 31
New
Feb 7
First Quarter

Hourly Weather History & Observations

Time (IST) Temp. Windchill Dew Point Humidity Pressure Visibility Wind Dir Wind Speed Gust Speed Precip Events Conditions
12:00 AM 53.6 °F - 46.4 °F 77% 30.06 in 0.5 mi Calm Calm - N/A   Smoke
12:30 AM 53.6 °F - 46.4 °F 77% 30.04 in 0.5 mi Calm Calm - N/A Fog Shallow Fog
1:00 AM 51.8 °F - 48.2 °F 88% 30.04 in 0.4 mi Calm Calm - N/A Fog Shallow Fog
1:30 AM 51.8 °F - 48.2 °F 88% 30.04 in 0.4 mi Calm Calm - N/A Fog Shallow Fog
2:00 AM 51.8 °F - 48.2 °F 88% 30.04 in 0.4 mi Calm Calm - N/A Fog Shallow Fog
2:30 AM 53.6 °F - 48.2 °F 82% 30.01 in 0.4 mi ESE 3.5 mph - N/A Fog Shallow Fog
3:00 AM 53.6 °F - 48.2 °F 82% 30.01 in 0.4 mi SE 3.5 mph - N/A Fog Shallow Fog
3:30 AM 53.6 °F - 50.0 °F 88% 30.01 in 0.4 mi South 3.5 mph - N/A Fog Shallow Fog
4:00 AM 51.8 °F - 50.0 °F 94% 30.01 in 0.4 mi WSW 3.5 mph - N/A Fog Shallow Fog
4:30 AM 50.0 °F - 50.0 °F 100% 30.01 in 0.3 mi WSW 3.5 mph - N/A Fog Fog
5:00 AM 48.2 °F - 48.2 °F 100% 30.01 in 0.2 mi West 3.5 mph - N/A Fog Fog
5:30 AM 48.2 °F - 48.2 °F 100% 30.01 in 0.2 mi West 3.5 mph - N/A Fog Fog
6:00 AM 46.4 °F 44.3 °F 46.4 °F 100% 30.04 in 0.2 mi West 4.6 mph - N/A Fog Fog
6:30 AM 46.4 °F 43.5 °F 46.4 °F 100% 30.04 in 0.2 mi WNW 5.8 mph - N/A Fog Fog
7:00 AM 46.4 °F 45.2 °F 46.4 °F 100% 30.04 in 0.1 mi WSW 3.5 mph - N/A Fog Fog
7:30 AM 44.6 °F 43.1 °F 44.6 °F 100% 30.04 in 0.1 mi West 3.5 mph - N/A Fog Fog
8:00 AM 46.4 °F 45.2 °F 46.4 °F 100% 30.06 in 0.1 mi WNW 3.5 mph - N/A Fog Fog
8:30 AM 48.2 °F - 48.2 °F 100% 30.06 in 0.1 mi West 3.5 mph - N/A Fog Fog
9:00 AM 50.0 °F - 50.0 °F 100% 30.09 in 0.1 mi Calm Calm - N/A Fog Fog
9:30 AM 51.8 °F - 51.8 °F 100% 30.09 in 0.2 mi Calm Calm - N/A Fog Fog
10:00 AM 57.2 °F - 50.0 °F 77% 30.09 in 0.3 mi Calm Calm - N/A Fog Fog
10:30 AM 59.0 °F - 48.2 °F 67% 30.09 in 0.4 mi NNW 5.8 mph - N/A   Smoke
11:30 AM 62.6 °F - 46.4 °F 55% 30.09 in 0.9 mi North 5.8 mph - N/A   Smoke
12:00 PM 64.4 °F - 44.6 °F 49% 30.06 in 1.0 mi North 3.5 mph - N/A   Smoke
12:30 PM 66.2 °F - 42.8 °F 43% 30.06 in 1.1 mi NW 4.6 mph - N/A   Smoke
1:00 PM 68.0 °F - 42.8 °F 40% 30.04 in 1.1 mi NW 3.5 mph - N/A   Smoke
1:30 PM 68.0 °F - 42.8 °F 40% 30.01 in 1.2 mi NW 4.6 mph - N/A   Haze
2:00 PM 69.8 °F - 35.6 °F 28% 30.01 in 1.7 mi NW 5.8 mph - N/A   Haze
2:30 PM 69.8 °F - 35.6 °F 28% 29.98 in 1.7 mi WNW 6.9 mph - N/A   Haze
3:30 PM 69.8 °F - 37.4 °F 31% 29.98 in 2.2 mi NW 5.8 mph - N/A   Haze
4:00 PM 68.0 °F - 37.4 °F 33% 29.98 in 2.2 mi NW 4.6 mph - N/A   Haze
4:30 PM 68.0 °F - 39.2 °F 35% 29.98 in - NW 4.6 mph - N/A   Haze
5:30 PM 66.2 °F - 39.2 °F 37% 29.98 in 1.9 mi NNW 4.6 mph - N/A   Haze
6:00 PM 64.4 °F - 41.0 °F 42% 29.98 in 1.6 mi NNW 3.5 mph - N/A   Haze
6:30 PM 60.8 °F - 41.0 °F 48% 29.98 in 1.3 mi East 3.5 mph - N/A   Haze
7:00 PM 60.8 °F - 53.6 °F 77% 29.98 in 0.5 mi SE 6.9 mph - N/A Fog Shallow Fog
7:30 PM 60.8 °F - 53.6 °F 77% 29.98 in - SE 6.9 mph - N/A Fog Shallow Fog
8:00 PM 57.2 °F - 55.4 °F 94% 30.01 in 0.3 mi ESE 4.6 mph - N/A Fog Fog
8:30 PM 57.2 °F - 55.4 °F 94% 30.01 in 0.3 mi SE 3.5 mph - N/A Fog Fog
9:00 PM 57.2 °F - 55.4 °F 94% 30.04 in 0.2 mi ESE 4.6 mph - N/A Fog Fog
9:30 PM 55.4 °F - 53.6 °F 94% 30.04 in 0.2 mi SE 4.6 mph - N/A Fog Fog
10:00 PM 55.4 °F - 53.6 °F 94% 30.04 in 0.2 mi SE 4.6 mph - N/A Fog Fog
10:30 PM 53.6 °F - 51.8 °F 94% 30.04 in 0.2 mi SE 8.1 mph - N/A Fog Fog
11:00 PM 53.6 °F - 51.8 °F 94% 30.04 in 0.2 mi SE 6.9 mph - N/A Fog Fog
11:30 PM 53.6 °F - 51.8 °F 94% 30.04 in 0.2 mi ESE 5.8 mph - N/A Fog Fog